Погода в Армавире

Погода в Армавире : погода сейчас, прогноз погоды и архив. Всё, что Вы хотите узнать о погоде в Армавире!

Поиск расширенной информации на нашем сайте:

Полезная информация:

Другие новости

Новости СМИ2

Главная страница сайта

Новости сайта

03.07.2017

Напоминаем, что на нашем специализированном сайте Метеоцентр.Азия вы можете получить высокодетализированные автоматические прогнозы погоды по пунктам России, СНГ и мира в авиационном формате (включающие направление и скорость ветра, видимость, явления погоды, количество и форму облачности, нижнюю и верхнюю границу облачности).

Рекомендуем:

Погода в Армавире - сегодня

Время (UTC), дата Ветер
(°,м/с) 
Видим.   Явления Облачность Т
(°С)
Тd
(°С)
f(%) Тe
(°С)
Pmin
(гПа)
dP
(гПа)
Po
(мм)
O2
(г/м3)
Тmin Tmax R s Состояние
почвы
21 18.05.19 110 (В) 10 км    8/0 средняя, верхняя 
[Ac cast|Ci fib]
+19.4 +12.5 64 +26  1006.2  -0.3  741  276           
00 19.05.19 030 (СВ) 10 км  гроза без осадков  10/8 600 м кучево-дожд., средняя 
[Cb cap|As op]
+18.5 +12.7 69 +25  1006.6  0.4  741  277           
03 19.05.19 060 (СВ) 10 км  {гроза, ливн. осадки}  9/8 600 м средняя, верхняя 
[Sc|Ac trans|Ci fib]
+17.4 +12.1 71 +23  1006.4  -0.2  741  278  +17    0.3     
06 19.05.19 160 (Ю) 10 км  {гроза, ливн. осадки}  10/10 600 м 
[Sc]
+20.9 +14.8 68 +30  1007.9  1.5  742  275           
09 19.05.19 020 (С) 10 км  {гроза}  10/5 600 м верхняя 
[Cu Sc|Ci]
+23.6 +14.6 57 +32  1009  1.4  743  273           
12 19.05.19 150 (ЮВ) 10 км  {гроза}  10/10 600 м кучево-дожд. 
[Cb cap]
+24.3 +14.8 55 +33  1009.3  0.3  743  272           
15 19.05.19 200 (Ю) 10 км  гроза без осадков{ливн. осадки}  10/8 600 м кучево-дожд., средняя 
[Cb cap|As op]
+20.3 +17.7 85 +34  1011.3  1.7  745  275    +26.1     
18 19.05.19 030 (СВ) 10 км  {гроза, ливн. осадки}  10/0 верхняя 
[Ci]
+18.1 +16.7 92 +32  1011.5  -0.1  745  278           
21 19.05.19 360 (С) 10 км    10/0 средняя, верхняя 
[Ac trans|Ci]
+17.2 +16.3 94 +30  1012.1  0.4  745  279           
00 20.05.19 060 (СВ) 10 км    10/0 верхняя 
[Ci]
+15.9 +15 94 +26  1012.9  0.8  746  281           
03 20.05.19 тихо ()   0500 м  туман  10/0 средняя, верхняя 
[Ac trans|Ci]
+16 +15.2 95 +25  1013.5  0.6  746  281  +15         
06 20.05.19 310 (СЗ) 10 км  {туман}  9/9 300 м 
[Sc]
+20.3 +16.8 80 +32  1014.3  747  276           
09 20.05.19 100 (В) 10 км    10/10 300 м кучево-дожд. 
[Cb cap]
+23.8 +12.6 49 +29  1015.4  1.3  748  275           
12 20.05.19 210 (ЮЗ) 6-12{13}  10 км    9/9 300 м кучево-дожд. 
[Cb cap]
+22 +14.5 62 +30  1016.5  749  276           
15 20.05.19 160 (Ю) 1{12}  10 км    8/3 600 м верхняя 
[Sc|Ci fib]
+23.2 +14.5 58 +31  1015.4  -1  748  275    +25.1       
18 20.05.19 тихо ()   10 км    4/0 средняя, верхняя 
[Ac trans|Ci fib]
+17.3 +14.9 86 +26  1016.5  0.7  748  280           
21 20.05.19 020 (С) 10 км    ясно 
+15.2 +14 93 +24  1017.1  0.5  749  283           
00 21.05.19 110 (В) 10 км    ясно 
+14.3 +13.1 92 +22  1017.4  0.2  749  284           
03 21.05.19 120 (ЮВ) 10 км    ясно 
+15.6 +3.7 45 +16  1017.5  0.2  749  285  +13.3        сухая 
06 21.05.19 140 (ЮВ) 10 км    ясно 
+21 +9 46 +21  1017.8  0.6  749  279           
09 21.05.19 090 (В) 10 км    ясно 
+26 +9.4 35 +26  1016.9  -0.5  749  274           
12 21.05.19 090 (В) 10 км    5/1 600 м верхняя 
[Cu hum|Ci fib]
+27.4 +9.5 33 +28  1015.6  -1.2  748  272           
15 21.05.19 090 (В) 10 км    10/3 600 м верхняя 
[Sc diur, vesp|Ci]
+25.8 +10.6 38 +28  1015.2  -0.4  748  273    +27.7       
18 21.05.19 080 (В) 10 км    10/0 верхняя 
[Ci]
+21.2 +10.7 51 +23  1015.2  -0.3  748  278           
21 21.05.19 110 (В) 5{10}  10 км    10/0 средняя 
[Ac As]
+19.6 +9.7 53 +21  1014.6  -0.7  747  279           
Время (UTC), дата Ветер
(°,м/с) 
Видим.   Явления Облачность Т
(°С)
Тd
(°С)
f(%) Тe
(°С)
Pmin
(гПа)
dP
(гПа)
Po
(мм)
O2
(г/м3)
Тmin Tmax R s Состояние
почвы

Для получения пояснительной информации подведите курсор к названию столбца.

ПОГОДА в Армавире - архив

Всё, что Вы хотите узнать о погоде в Армавире - удобно и подробно!

Выберите нужную дату (начиная с 1 января 2018* года) и нажмите кнопку "Найти".
Будут отображены архивные сводки погоды по пункту Армавир, начиная с указанной даты.


Отображать данные в формате CSV (для использования в таблицах Excel)


Внимание! Наш архив погоды предназначен исключительно для личного некоммерческого использования в познавательных целях. Если Вам необходимы официальные справки о состоянии погоды (для производственных, юридических, коммерческих и т.п. целей), обращайтесь в органы Росгидромета.

*Примечание: данная дата относится к архиву по метеостанциям СССР (Россия, СНГ, Балтия).
Архив по метеостанциям Зарубежной Европы и Азии (кроме Китая) хранится 10 дней, по другим регионам земного шара (Китай, Африка, Америка, Австралия, Океания) - 1 день.

Армавир - район местоположения метеостанции


Название, широта, долгота, высота метеостанции:
Армавир 45°ш. 41.1°д. 159 м над ур. моря [Российская Федерация]

Дополнительная информация

В oтличие oт бoльшинства пoгoдных сайтoв мы публикуем пoдрoбную метеoинфoрмацию в детальнoм прoфессиoнальнoм фoрмате.

Характеристики температуры и влажнoсти вoздуха измеряются на высoте 2 м в тени вдали oт зданий и деревьев.
Скoрoсть ветра измеряется на высoте 10 м (на урoвне рoста челoвека скoрoсть ветра ниже в 1.5-2 раза). Если метеoстанция нахoдится в гoрoде или в лесу, тo скoрoсть ветра занижена на 2-4 м/с пo сравнению с oткрытым местoм. Скoрoсть ветра над акватoриями крупных рек и oзёр, а также на вершинах хoлмoв на 2-5 м/с выше, чем в oбычных услoвиях.
Атмoсфернoе давление в разных тoчках местнoсти мoжет значительнo oтличаться oт давления на метеoстанции, в зависимoсти oт услoвий рельефа (при пoдъёме на 10 м давление пoнижается примернo на 1 мм рт.ст.).